RJCNRJCH

Guest
Details From RJCN - NAKASHIBETSU
To RJCH - HAKODATE
Flight Number -
Tags decoded
Created
Modified
Stats Distance 219 nm / 406 km
Max Altitude 0 ft / 0 m
Waypoints 5
Social Downloads 0
Likes 0
Share VATSIM

Download

Looking for another format? Having issues loading an existing format? Contact us
Advertisement - Login to hide

Notes

Requested: RJCN KSE OBE MKE RJCH

Route

RJCN KSE OBE MKE RJCH

ID Type Via Altitude Latitude Longitude Leg Dist Tot Dist Heading (true) Name
O RJCN APT - 0 ft / 0 m 43.57743˚ 144.95979˚ - 0 nm - NAKASHIBETSU
KSE VOR - 0 ft / 0 m 43.03380˚ 144.20411˚ 46 nm 46 nm 226° / 225° KUSHIRO VOR-DME
OBE VOR - 0 ft / 0 m 42.73396˚ 143.22045˚ 46 nm 93 nm 248° / 247° OBIHIRO VOR-DME
MKE VOR - 0 ft / 0 m 42.55501˚ 141.95563˚ 56 nm 150 nm 260° / 259° MUKAWA VOR-DME
O RJCH APT - 0 ft / 0 m 41.77016˚ 140.82203˚ 69 nm 219 nm 227° / 227° HAKODATE

Altitude Profile

Advertisement - Login to hide

Weather


0- 5 10 15 20 25 30 35+ Temperature / ° C

Clouds and Precipitation
Forecast for 2017-12-16 12:00 UTC. Updated 37 minutes ago

Ground ~20,000 ft ~40,000 ft Winds

RJCN

Details ICAO RJCN (SHB)
Name NAKASHIBETSU
Region Japan
Timezone Asia/Tokyo (UTC+9.0)
Stats Elevation 234 ft / 71 m (AMSL)
Location 43.577427° 144.959791°
Runways 1
Magnetic Variation 8.929° W

METAR

RJCN 160700Z VRB02KT 9999 FEW010 SCT/// M04/M07 Q1004

Decode

TAF

Not found

Departure Runways

ID Width Length Bearing (true) Bearing (mag) Surface Threshold Offset Overrun Length
08 150 ft / 46 m 6,549 ft / 1,996 m 70.96° 79.89° Asphalt 0 ft / 0 m 200 ft / 61 m
26 150 ft / 46 m 6,549 ft / 1,996 m 250.97° 259.90° Asphalt 0 ft / 0 m 200 ft / 61 m

RJCH

Details ICAO RJCH (HKD)
Name HAKODATE
Region Japan
Timezone Asia/Tokyo (UTC+9.0)
Stats Elevation 151 ft / 46 m (AMSL)
Location 41.770161° 140.822030°
Runways 1
Magnetic Variation 9.238° W

METAR

RJCH 160700Z 32006KT 290V350 9999 FEW025 BKN030 BKN040 M00/M05 Q1009

Decode

TAF

TAF RJCH 160511Z 1606/1712 29010KT 9999 FEW020 BKN040 TEMPO 1618/1703 3000 -SHSN

Decode

Destination Runways

ID Width Length Bearing (true) Bearing (mag) Surface Threshold Offset Overrun Length
12 150 ft / 46 m 9,814 ft / 2,991 m 108.09° 117.33° Asphalt 0 ft / 0 m 197 ft / 60 m
30 150 ft / 46 m 9,814 ft / 2,991 m 288.11° 297.35° Asphalt 0 ft / 0 m 197 ft / 60 m

Approach Navaids

Runway Type Ident Frequency Range Bearing (true) Bearing (mag) Slope Elevation
12 Localiser IHL 109.30 MHz 18 nm / 33 km 108.05° 117.29° - 51 ft / 16 m (AMSL)
12 Glidescope IHL 109.30 MHz 10 nm / 19 km 108.10° 117.34° 3.00° 151 ft / 46 m (AMSL)
12 DME IHL 109.30 MHz 18 nm / 33 km - - - 111 ft / 34 m (AMSL)

Popular Alternatives